Regional Weather Roundup
Issued by NWS Midland/Odessa, TX

Skip options and go directly to product.
Home | Oldest Version | Previous Version | Current Version | All | Graphics & Text | Save Text | Print | Product List | Glossary On

Skip product version selection by date and time.   
688
ASUS44 KMAF 051210
RWRMAF
MIDLAND AREA WEATHER ROUNDUP
NATIONAL WEATHER SERVICE MIDLAND TX
700 AM CDT WED AUG 05 2015

...IN SOUTHWEST TEXAS AND SOUTHEAST NEW MEXICO...

CITY           SKY/WX    TMP DP  RH WIND       PRES   REMARKS
ALPINE         CLEAR     65  59  79 SW8       30.19S
ANDREWS        FAIR      74  62  65 SW9       30.03S
ARTESIA        CLEAR     72  59  64 CALM      30.05R
BIG SPRING     CLEAR     75  61  62 SE9       30.03R
CARLSBAD       CLEAR     73  55  53 NE3       30.01R
DRYDEN           N/A     78  68  71 W3        29.99R
FORT STOCKTON  CLEAR     76  59  55 S12       30.02S
GUAD PASS      CLEAR     73  53  49 W13       30.20S
HOBBS          CLEAR     70  63  78 S7        30.06S
MARFA          CLEAR     59  57  94 N5        30.18S
MIDLAND AIRPK  CLEAR     77  61  57 S5        30.02S
MIDLAND INTL   CLEAR     77  61  57 SW5       30.02R
ODESSA         CLEAR     79  60  52 S10       30.03R
PECOS          CLEAR     73  59  61 CALM      29.98S
PRESIDIO       FAIR      78  61  56 MISG      30.02R
SEMINOLE       CLEAR     71  61  71 SW6       30.04S
SNYDER         CLEAR     74  62  64 S9        30.01R
WINK           CLEAR     77  62  59 SE9       29.99S
$$
...OTHER STATIONS IN TEXAS...

CITY           SKY/WX    TMP DP  RH WIND       PRES   REMARKS
ABILENE        CLEAR     79  66  64 S9        29.97R
AMARILLO       CLEAR     71  64  78 SW13      30.01S
AUSTIN         PTCLDY    77  74  90 S9        29.99R
BROWNSVILLE    CLEAR     81  77  88 S7        29.95R
CORPUS CHRISTI PTCLDY    79  77  94 SE6       29.97R
DALLAS FTW     MOCLDY    83  69  62 S14       29.94R
DEL RIO        CLEAR     80  73  79 E10       29.95S
EL PASO        PTCLDY    78  54  43 S8        30.07R
HOUSTON INT    PTCLDY    80  77  90 CALM      29.99R
LUBBOCK        PTCLDY    76  62  62 SW12      30.02R
SAN ANGELO     CLEAR     79  71  76 S14       29.99R
SAN ANTONIO    PTCLDY    79  72  79 S9        30.01R
WACO           CLEAR     79  73  82 S10       29.97R
WICHITA FALLS  NOT AVBL
$$
...OTHER LOCATIONS IN NEW MEXICO...

CITY           SKY/WX    TMP DP  RH WIND       PRES   REMARKS
ALAMAGORDO     PTCLDY    66  46  48 NE3       30.10R
ALBUQUERQUE    CLEAR     67  47  48 W5        30.20R
CANNON AFB     CLEAR     69  57  66 SW7       30.08R
CLOVIS         CLEAR     64  57  77 SW8       30.09R
HOLLOMAN AFB   PTCLDY    67  47  47 NE6       30.07R
ROSWELL        CLEAR     68  59  73 SW5       30.04R
RUIDOSO          N/A    N/A N/A N/A MISG        N/A
SANTA FE       CLEAR     59  41  51 N12       30.25S
TRUTH OR CONSE PTCLDY    75  49  39 W10       30.13R
TUCUMCARI      CLEAR     68  57  68 W9        30.04R
$$

USA.gov is the U.S. government's official web portal to all federal, state and local government web resources and services.